User: anonymous   Login
Location: Wildlife_Club
(35.6000°N, 81.4330°W)
Time: 20:18:46
(UTC-04:00)
Language:

Transit 4A - Orbit

View from above orbital plane
View from above orbital plane
View from above satellite
View from above satellite

Ground track
Ground track

The orbit data is extracted from the following two-line orbital elements,

1   116U 61015A   19171.86028898 -.00000078  00000-0 -94162-6 0  9994
2   116  66.8106  14.6006 0082702 263.6238  95.5418 13.91753909941848
Epoch (UTC): 20 June 2019 20:38:48
Eccentricity: 0.0082702
inclination: 66.8106°
perigee height: 862 km
apogee height: 983 km
right ascension of ascending node: 14.6006°
argument of perigee: 263.6238°
revolutions per day: 13.91753909
mean anomaly at epoch: 95.5418°
orbit number at epoch: 94184

The dashed part of the orbit path shows where the satellite is in the earth's shadow,  

DLR